Regional Weather Roundup
Issued by NWS

Home | Current Version | Previous Version | Graphics & Text | Print | Product List | Glossary Off
Versions: 1 2 3 4 5 6 7 8 9 10 11 12 13 14 15 16 17 18 19 20 21 22 23 24 25 26 27 28 29 30 31 32 33 34 35 36 37 38 39 40 41 42 43 44 45 46 47 48 49 50

000
ASUS43 KFSD 262102
RWRSD

WEATHER ROUNDUP FOR SOUTH DAKOTA
NATIONAL WEATHER SERVICE SIOUX FALLS SD
400 PM CDT MON JUN 26 2017

NOTE: "FAIR" INDICATES FEW OR NO CLOUDS BELOW 12,000 FEET WITH NO
SIGNIFICANT WEATHER AND/OR OBSTRUCTIONS TO VISIBILITY.


SDZ001>005-009-010-012>017-262200-
NORTHWEST AND NORTH CENTRAL SOUTH DAKOTA

CITY           SKY/WX    TMP DP  RH WIND       PRES   REMARKS
BUFFALO          N/A     80  37  21 SE10      30.04F
FAITH            N/A     77  40  26 S15G21    30.13F
MOBRIDGE       SUNNY     76  38  25 NW7       30.14F
$$

SDZ012>016-024>037-041>051-057-063-072>074-262200-
SOUTHWEST AND SOUTH CENTRAL SOUTH DAKOTA

CITY           SKY/WX    TMP DP  RH WIND       PRES   REMARKS
RAPID CTY ARPT CLOUDY    78  39  24 SE15      30.13F
PIERRE         SUNNY     73  41  31 E6        30.15F
CUSTER         SUNNY     69  35  28 S9G18     30.23F
ELLSWORTH AFB  CLOUDY    78  38  23 SE13G20   30.12F
PHILIP         SUNNY     78  40  25 SE8G20    30.14F
PINE RIDGE     SUNNY     78  39  24 VRB3      30.16F
SPEARFISH      FAIR      77  43  29 E15G21    30.12F
WINNER         FAIR      77  38  24 VRB3      30.17F
$$

SDZ004>011-016>023-039-040-262200-
NORTHEAST SOUTH DAKOTA

CITY           SKY/WX    TMP DP  RH WIND       PRES   REMARKS
ABERDEEN       SUNNY     70  36  28 VRB3      30.18F
WATERTOWN      SUNNY     68  40  35 N8        30.18F
BROOKINGS      SUNNY     67  39  35 N10G22    30.19F
SISSETON         N/A     74  39  28 MISG      30.16F
$$

SDZ017-020-022-023-036>040-048>070-262200-
SOUTHEAST SOUTH DAKOTA

CITY           SKY/WX    TMP DP  RH WIND       PRES   REMARKS
SIOUX FALLS    MOSUNNY   70  44  39 MISG      30.17F
HURON          SUNNY     71  38  29 VRB6      30.18F
CHAMBERLAIN    SUNNY     75  38  25 NE7       30.17F
MITCHELL       SUNNY     73  36  25 E7        30.18F
YANKTON        SUNNY     71  42  35 N8        30.17F
$$

ABBREVIATIONS USED IN REMARKS
   TC - TEMPERATURE IN CELSIUS
  WCI - WIND CHILL INDEX
   HX - HEAT INDEX
  VSB - VISIBILITY





USA.gov is the U.S. government's official web portal to all federal, state and local government web resources and services.